Time,TemperatureF,DewpointF,PressureIn,WindDirection,WindDirectionDegrees,WindSpeedMPH,WindSpeedGustMPH,Humidity,HourlyPrecipIn,Conditions,Clouds,dailyrainin,SoftwareType,DateUTC
2013-04-11 00:00:00,51.2,48.0,30.01,SE,134,0.0,0.0,89,0.00,,,0.00,,2013-04-11 07:00:00,
2013-04-11 00:10:00,51.9,49.0,30.02,NW,326,0.0,0.0,89,0.00,,,0.00,,2013-04-11 07:10:00,
2013-04-11 00:20:00,52.2,49.0,30.01,NW,309,0.0,0.0,89,0.00,,,0.00,,2013-04-11 07:20:00,
2013-04-11 00:30:00,51.5,48.0,30.02,West,279,0.0,0.0,89,0.00,,,0.00,,2013-04-11 07:30:00,
2013-04-11 00:40:00,51.2,48.0,30.01,West,277,0.0,0.0,89,0.00,,,0.00,,2013-04-11 07:40:00,
2013-04-11 00:50:00,50.6,48.0,30.01,NW,306,0.0,0.0,90,0.00,,,0.00,,2013-04-11 07:50:00,
2013-04-11 01:00:00,51.0,48.0,30.01,WNW,285,0.0,0.0,91,0.00,,,0.00,,2013-04-11 08:00:00,
2013-04-11 01:10:00,50.9,48.0,30.00,NW,307,0.0,0.0,91,0.00,,,0.00,,2013-04-11 08:10:00,
2013-04-11 01:20:00,50.7,48.0,30.00,NW,306,0.0,0.0,91,0.00,,,0.00,,2013-04-11 08:20:00,
2013-04-11 01:30:00,50.6,48.0,30.00,NW,306,0.0,0.0,91,0.00,,,0.00,,2013-04-11 08:30:00,
2013-04-11 01:40:00,50.3,48.0,30.00,NW,317,0.0,0.0,91,0.00,,,0.00,,2013-04-11 08:40:00,
2013-04-11 01:50:00,49.9,47.0,29.99,NW,324,0.0,0.0,91,0.00,,,0.00,,2013-04-11 08:50:00,
2013-04-11 02:00:00,49.7,47.0,29.99,NW,309,0.0,0.0,92,0.00,,,0.00,,2013-04-11 09:00:00,
2013-04-11 02:10:00,49.6,47.0,29.98,NW,309,0.0,0.0,92,0.00,,,0.00,,2013-04-11 09:10:00,
2013-04-11 02:20:00,49.6,47.0,29.98,NW,310,0.0,0.0,92,0.00,,,0.00,,2013-04-11 09:20:00,
2013-04-11 02:30:00,49.4,47.0,29.98,NW,311,0.0,0.0,92,0.00,,,0.00,,2013-04-11 09:30:00,
2013-04-11 02:40:00,49.5,47.0,29.98,NW,325,0.0,0.0,92,0.00,,,0.00,,2013-04-11 09:40:00,
2013-04-11 02:50:00,49.7,48.0,29.97,NNW,327,0.0,0.0,93,0.00,,,0.00,,2013-04-11 09:50:00,
2013-04-11 03:01:00,49.3,47.0,29.98,NNE,26,0.0,0.0,93,0.00,,,0.00,,2013-04-11 10:01:00,
2013-04-11 03:10:00,49.4,47.0,29.97,ESE,120,0.0,0.0,92,0.00,,,0.00,,2013-04-11 10:10:00,
2013-04-11 03:20:00,49.5,47.0,29.97,SE,145,0.0,0.0,92,0.00,,,0.00,,2013-04-11 10:20:00,
2013-04-11 03:30:00,49.9,48.0,29.97,SE,143,0.0,0.0,92,0.00,,,0.00,,2013-04-11 10:30:00,
2013-04-11 03:40:00,49.6,47.0,29.95,South,188,0.0,0.0,92,0.00,,,0.00,,2013-04-11 10:40:00,
2013-04-11 03:50:00,49.9,48.0,29.96,SSE,158,0.0,0.0,93,0.00,,,0.00,,2013-04-11 10:50:00,
2013-04-11 04:00:00,49.8,48.0,29.96,SSE,157,0.0,0.0,92,0.00,,,0.00,,2013-04-11 11:00:00,
2013-04-11 04:10:00,49.2,47.0,29.96,SSE,157,0.0,0.0,92,0.00,,,0.00,,2013-04-11 11:10:00,
2013-04-11 04:20:00,49.1,47.0,29.96,SE,142,0.0,0.0,92,0.00,,,0.00,,2013-04-11 11:20:00,
2013-04-11 04:30:00,49.0,47.0,29.96,SSW,198,0.0,0.0,93,0.00,,,0.00,,2013-04-11 11:30:00,
2013-04-11 04:40:00,48.9,47.0,29.96,South,173,0.0,0.0,92,0.00,,,0.00,,2013-04-11 11:40:00,
2013-04-11 04:50:00,49.6,48.0,29.96,South,175,0.0,0.0,93,0.00,,,0.00,,2013-04-11 11:50:00,
2013-04-11 05:00:00,49.9,48.0,29.95,South,175,0.0,0.0,93,0.00,,,0.00,,2013-04-11 12:00:00,
2013-04-11 05:10:00,49.6,47.0,29.96,South,175,0.0,0.0,92,0.00,,,0.00,,2013-04-11 12:10:00,
2013-04-11 05:20:00,49.2,47.0,29.96,South,175,0.0,0.0,92,0.00,,,0.00,,2013-04-11 12:20:00,
2013-04-11 05:30:00,49.2,47.0,29.96,South,175,0.0,0.0,92,0.00,,,0.00,,2013-04-11 12:30:00,
2013-04-11 05:40:00,49.3,47.0,29.95,South,174,0.0,0.0,93,0.00,,,0.00,,2013-04-11 12:40:00,
2013-04-11 05:50:00,49.2,47.0,29.95,SSW,213,0.0,0.0,92,0.00,,,0.00,,2013-04-11 12:50:00,
2013-04-11 06:00:00,48.8,47.0,29.95,SSW,213,0.0,0.0,92,0.00,,,0.00,,2013-04-11 13:00:00,
2013-04-11 06:10:00,48.5,47.0,29.94,SSW,211,0.0,0.0,93,0.00,,,0.00,,2013-04-11 13:10:00,
2013-04-11 06:20:00,48.2,46.0,29.95,SSW,211,0.0,0.0,93,0.00,,,0.00,,2013-04-11 13:20:00,
2013-04-11 06:30:00,48.4,46.0,29.95,SSW,213,0.0,0.0,93,0.00,,,0.00,,2013-04-11 13:30:00,
2013-04-11 06:40:00,48.9,47.0,29.95,SW,215,0.0,0.0,94,0.00,,,0.00,,2013-04-11 13:40:00,
2013-04-11 06:50:00,47.9,46.0,29.95,SSW,193,0.0,0.0,93,0.00,,,0.00,,2013-04-11 13:50:00,
2013-04-11 07:00:00,47.8,46.0,29.95,SSW,198,0.0,0.0,93,0.00,,,0.00,,2013-04-11 14:00:00,
2013-04-11 07:10:00,48.6,47.0,29.95,NW,304,0.0,0.0,94,0.00,,,0.00,,2013-04-11 14:10:00,
2013-04-11 07:22:00,49.7,48.0,29.95,WNW,285,0.0,0.0,94,0.00,,,0.00,,2013-04-11 14:22:00,
2013-04-11 07:30:00,49.8,48.0,29.94,WNW,282,0.0,0.0,94,0.00,,,0.00,,2013-04-11 14:30:00,
2013-04-11 07:40:00,49.9,48.0,29.94,WNW,282,0.0,0.0,94,0.00,,,0.00,,2013-04-11 14:40:00,
2013-04-11 07:50:00,49.8,48.0,29.95,NW,311,0.0,0.0,94,0.00,,,0.00,,2013-04-11 14:50:00,
2013-04-11 08:00:00,49.8,48.0,29.95,West,276,0.0,0.0,94,0.00,,,0.00,,2013-04-11 15:00:00,
2013-04-11 08:10:00,49.7,48.0,29.95,NW,316,0.0,0.0,94,0.00,,,0.00,,2013-04-11 15:10:00,
2013-04-11 08:20:00,50.3,49.0,29.96,NW,313,0.0,0.0,94,0.00,,,0.00,,2013-04-11 15:20:00,
2013-04-11 08:30:00,50.7,49.0,29.95,West,269,0.0,0.0,93,0.00,,,0.00,,2013-04-11 15:30:00,
2013-04-11 08:40:00,50.7,49.0,29.96,West,279,0.0,0.0,93,0.00,,,0.00,,2013-04-11 15:40:00,
2013-04-11 08:50:00,51.0,49.0,29.96,NW,321,0.0,0.0,93,0.00,,,0.00,,2013-04-11 15:50:00,
2013-04-11 09:00:00,50.9,49.0,29.95,WSW,255,0.0,0.0,92,0.00,,,0.00,,2013-04-11 16:00:00,
2013-04-11 09:10:00,51.0,49.0,29.95,WNW,291,0.0,0.0,92,0.00,,,0.00,,2013-04-11 16:10:00,
2013-04-11 09:20:00,51.4,49.0,29.95,WSW,257,0.0,0.0,91,0.00,,,0.00,,2013-04-11 16:20:00,
2013-04-11 09:30:00,51.6,49.0,29.95,WNW,294,0.0,0.0,91,0.00,,,0.00,,2013-04-11 16:30:00,
2013-04-11 09:40:00,51.8,49.0,29.96,WSW,241,0.0,0.0,89,0.00,,,0.00,,2013-04-11 16:40:00,
2013-04-11 09:50:00,52.1,49.0,29.95,NW,316,0.0,0.0,89,0.00,,,0.00,,2013-04-11 16:50:00,
2013-04-11 10:00:00,52.3,49.0,29.95,West,275,0.0,0.0,89,0.00,,,0.00,,2013-04-11 17:00:00,
2013-04-11 10:10:00,52.3,49.0,29.96,NW,311,0.0,0.0,88,0.00,,,0.00,,2013-04-11 17:10:00,
2013-04-11 10:20:00,52.6,49.0,29.96,West,271,0.0,0.0,88,0.00,,,0.00,,2013-04-11 17:20:00,
2013-04-11 10:30:00,52.3,49.0,29.96,WSW,250,0.0,0.0,88,0.00,,,0.00,,2013-04-11 17:30:00,
2013-04-11 10:40:00,52.8,49.0,29.95,WSW,252,0.0,0.0,87,0.00,,,0.00,,2013-04-11 17:40:00,
2013-04-11 10:50:00,53.1,49.0,29.95,West,269,0.0,0.0,87,0.00,,,0.00,,2013-04-11 17:50:00,
2013-04-11 11:00:00,53.1,49.0,29.95,West,277,0.0,0.0,87,0.00,,,0.00,,2013-04-11 18:00:00,
2013-04-11 11:10:00,53.5,50.0,29.95,West,279,0.0,0.0,87,0.00,,,0.00,,2013-04-11 18:10:00,
2013-04-11 11:20:00,53.3,50.0,29.94,West,264,0.0,0.0,87,0.00,,,0.00,,2013-04-11 18:20:00,
2013-04-11 11:30:00,53.3,49.0,29.93,West,272,0.0,0.0,86,0.00,,,0.00,,2013-04-11 18:30:00,
2013-04-11 11:40:00,54.3,50.0,29.94,West,273,0.0,0.0,85,0.00,,,0.00,,2013-04-11 18:40:00,
2013-04-11 11:50:00,53.7,49.0,29.94,WNW,294,0.0,0.0,85,0.00,,,0.00,,2013-04-11 18:50:00,
2013-04-11 12:00:00,53.2,49.0,29.93,West,266,0.0,0.0,85,0.00,,,0.00,,2013-04-11 19:00:00,
2013-04-11 12:10:00,53.4,49.0,29.93,West,275,0.0,0.0,86,0.00,,,0.00,,2013-04-11 19:10:00,
2013-04-11 12:20:00,53.4,49.0,29.93,WSW,257,0.0,0.0,86,0.00,,,0.00,,2013-04-11 19:20:00,
2013-04-11 12:30:00,53.4,50.0,29.93,West,276,0.0,0.0,87,0.00,,,0.00,,2013-04-11 19:30:00,
2013-04-11 12:40:00,53.7,50.0,29.92,West,274,0.0,0.0,86,0.00,,,0.00,,2013-04-11 19:40:00,
2013-04-11 12:50:00,53.9,50.0,29.92,West,270,0.0,0.0,86,0.00,,,0.00,,2013-04-11 19:50:00,
2013-04-11 13:00:00,54.0,50.0,29.91,West,260,0.0,0.0,86,0.00,,,0.00,,2013-04-11 20:00:00,
2013-04-11 13:10:00,54.8,50.0,29.91,West,273,0.0,0.0,85,0.00,,,0.00,,2013-04-11 20:10:00,
2013-04-11 13:20:00,54.5,50.0,29.90,WNW,282,0.0,0.0,85,0.00,,,0.00,,2013-04-11 20:20:00,
2013-04-11 13:30:00,54.5,50.0,29.90,NW,315,0.0,0.0,84,0.00,,,0.00,,2013-04-11 20:30:00,
2013-04-11 13:40:00,54.5,50.0,29.89,WNW,288,0.0,0.0,85,0.00,,,0.00,,2013-04-11 20:40:00,
2013-04-11 13:50:00,54.8,50.0,29.89,WNW,286,0.0,0.0,84,0.00,,,0.00,,2013-04-11 20:50:00,
2013-04-11 14:00:00,54.6,50.0,29.89,North,360,0.0,0.0,85,0.00,,,0.00,,2013-04-11 21:00:00,
2013-04-11 14:10:00,55.1,50.0,29.88,West,279,0.0,0.0,84,0.00,,,0.00,,2013-04-11 21:10:00,
2013-04-11 14:20:00,54.9,50.0,29.88,West,275,0.0,0.0,84,0.00,,,0.00,,2013-04-11 21:20:00,
2013-04-11 14:30:00,54.4,50.0,29.87,WNW,284,0.0,0.0,84,0.00,,,0.00,,2013-04-11 21:30:00,
2013-04-11 14:40:00,54.5,50.0,29.87,West,278,0.0,0.0,84,0.00,,,0.00,,2013-04-11 21:40:00,
2013-04-11 14:50:00,54.6,50.0,29.87,WNW,284,0.0,0.0,84,0.00,,,0.00,,2013-04-11 21:50:00,
2013-04-11 15:00:00,54.8,50.0,29.87,West,272,0.0,0.0,84,0.00,,,0.00,,2013-04-11 22:00:00,
2013-04-11 15:10:00,54.8,50.0,29.86,West,280,0.0,0.0,84,0.00,,,0.00,,2013-04-11 22:10:00,
2013-04-11 15:20:00,54.6,50.0,29.85,West,277,0.0,0.0,84,0.00,,,0.00,,2013-04-11 22:20:00,
2013-04-11 15:30:00,55.0,50.0,29.85,WNW,300,0.0,0.0,84,0.00,,,0.00,,2013-04-11 22:30:00,
2013-04-11 15:40:00,55.0,50.0,29.84,WNW,290,0.0,0.0,83,0.00,,,0.00,,2013-04-11 22:40:00,
2013-04-11 15:50:00,55.1,50.0,29.84,West,261,0.0,0.0,84,0.00,,,0.00,,2013-04-11 22:50:00,
2013-04-11 16:00:00,54.6,50.0,29.84,West,274,0.0,0.0,83,0.00,,,0.00,,2013-04-11 23:00:00,
2013-04-11 16:10:00,54.2,49.0,29.83,WNW,286,0.0,0.0,84,0.00,,,0.00,,2013-04-11 23:10:00,
2013-04-11 16:20:00,54.4,50.0,29.83,West,269,0.0,0.0,85,0.00,,,0.00,,2013-04-11 23:20:00,
2013-04-11 16:30:00,53.9,49.0,29.83,NW,313,0.0,0.0,84,0.00,,,0.00,,2013-04-11 23:30:00,
2013-04-11 16:40:00,54.1,50.0,29.82,WNW,288,0.0,0.0,85,0.00,,,0.00,,2013-04-11 23:40:00,
2013-04-11 16:50:00,54.2,49.0,29.81,West,272,0.0,0.0,84,0.00,,,0.00,,2013-04-11 23:50:00,
2013-04-11 17:00:00,54.3,50.0,29.81,West,272,0.0,0.0,84,0.00,,,0.00,,2013-04-12 00:00:00,
2013-04-11 17:10:00,54.9,50.0,29.81,WNW,288,0.0,0.0,83,0.00,,,0.00,,2013-04-12 00:10:00,
2013-04-11 17:20:00,55.4,50.0,29.80,North,360,0.0,0.0,82,0.00,,,0.00,,2013-04-12 00:20:00,
2013-04-11 17:30:00,56.3,50.0,29.80,WNW,289,0.0,0.0,79,0.00,,,0.00,,2013-04-12 00:30:00,
2013-04-11 17:40:00,56.3,50.0,29.81,North,360,0.0,0.0,78,0.00,,,0.00,,2013-04-12 00:40:00,
2013-04-11 17:50:00,55.5,49.0,29.81,NNW,327,0.0,0.0,79,0.00,,,0.00,,2013-04-12 00:50:00,
2013-04-11 18:00:00,55.4,49.0,29.81,WSW,257,0.0,0.0,79,0.00,,,0.00,,2013-04-12 01:00:00,
2013-04-11 18:10:00,54.9,49.0,29.80,West,275,0.0,0.0,80,0.00,,,0.00,,2013-04-12 01:10:00,
2013-04-11 18:20:00,54.2,49.0,29.81,WNW,286,0.0,0.0,81,0.00,,,0.00,,2013-04-12 01:20:00,
2013-04-11 18:30:00,53.7,49.0,29.81,WNW,286,0.0,0.0,83,0.00,,,0.00,,2013-04-12 01:30:00,
2013-04-11 18:40:00,53.3,49.0,29.80,NW,317,0.0,0.0,84,0.00,,,0.00,,2013-04-12 01:40:00,
2013-04-11 18:50:00,53.0,48.0,29.80,West,265,0.0,0.0,84,0.00,,,0.00,,2013-04-12 01:50:00,
2013-04-11 19:00:00,52.6,48.0,29.80,West,275,0.0,0.0,85,0.00,,,0.00,,2013-04-12 02:00:00,
2013-04-11 19:10:00,52.1,48.0,29.80,NNW,333,0.0,0.0,85,0.00,,,0.00,,2013-04-12 02:10:00,
2013-04-11 19:20:00,51.6,48.0,29.80,WNW,292,0.0,0.0,86,0.00,,,0.00,,2013-04-12 02:20:00,
2013-04-11 19:30:00,51.2,47.0,29.80,NW,313,0.0,0.0,87,0.00,,,0.00,,2013-04-12 02:30:00,
2013-04-11 19:40:00,51.0,48.0,29.80,NW,309,0.0,0.0,88,0.00,,,0.00,,2013-04-12 02:40:00,
2013-04-11 19:50:00,50.9,47.0,29.80,NW,305,0.0,0.0,88,0.00,,,0.00,,2013-04-12 02:50:00,
2013-04-11 20:00:00,51.0,48.0,29.80,West,261,0.0,0.0,88,0.00,,,0.00,,2013-04-12 03:00:00,
2013-04-11 20:10:00,50.9,47.0,29.80,NW,316,0.0,0.0,88,0.00,,,0.00,,2013-04-12 03:10:00,
2013-04-11 20:20:00,50.8,47.0,29.80,West,271,0.0,0.0,88,0.00,,,0.00,,2013-04-12 03:20:00,
2013-04-11 20:30:00,50.6,47.0,29.80,WNW,294,0.0,0.0,88,0.00,,,0.00,,2013-04-12 03:30:00,
2013-04-11 20:40:00,50.1,47.0,29.81,NNW,333,0.0,0.0,88,0.00,,,0.00,,2013-04-12 03:40:00,
2013-04-11 20:50:00,50.3,47.0,29.81,NW,323,0.0,0.0,89,0.00,,,0.00,,2013-04-12 03:50:00,
2013-04-11 21:00:00,50.4,47.0,29.81,West,279,0.0,0.0,89,0.00,,,0.00,,2013-04-12 04:00:00,
2013-04-11 21:10:00,50.2,47.0,29.82,NW,318,0.0,0.0,90,0.00,,,0.00,,2013-04-12 04:10:00,
2013-04-11 21:20:00,50.3,47.0,29.82,WNW,288,0.0,0.0,90,0.00,,,0.00,,2013-04-12 04:20:00,
2013-04-11 21:30:00,49.9,47.0,29.82,NW,309,0.0,0.0,89,0.00,,,0.00,,2013-04-12 04:30:00,
2013-04-11 21:40:00,49.8,47.0,29.82,NW,310,0.0,0.0,90,0.00,,,0.00,,2013-04-12 04:40:00,
2013-04-11 21:50:00,49.9,47.0,29.82,NW,313,0.0,0.0,90,0.00,,,0.00,,2013-04-12 04:50:00,
2013-04-11 22:00:00,49.8,47.0,29.83,NW,325,0.0,0.0,91,0.00,,,0.00,,2013-04-12 05:00:00,
2013-04-11 22:10:00,50.5,48.0,29.82,North,360,0.0,0.0,91,0.00,,,0.00,,2013-04-12 05:10:00,
2013-04-11 22:20:00,51.0,48.0,29.82,West,263,0.0,0.0,89,0.00,,,0.00,,2013-04-12 05:20:00,
2013-04-11 22:30:00,50.9,48.0,29.83,WNW,287,0.0,0.0,90,0.00,,,0.00,,2013-04-12 05:30:00,
2013-04-11 22:40:00,49.8,47.0,29.83,WNW,294,0.0,0.0,89,0.00,,,0.00,,2013-04-12 05:40:00,
2013-04-11 22:50:00,49.6,47.0,29.83,NW,309,0.0,0.0,90,0.00,,,0.00,,2013-04-12 05:50:00,
2013-04-11 23:00:00,49.6,47.0,29.83,NW,304,0.0,0.0,90,0.00,,,0.00,,2013-04-12 06:00:00,
2013-04-11 23:10:00,49.3,47.0,29.83,WNW,300,0.0,0.0,90,0.00,,,0.00,,2013-04-12 06:10:00,
2013-04-11 23:20:00,49.3,47.0,29.82,NW,309,0.0,0.0,91,0.00,,,0.00,,2013-04-12 06:20:00,
2013-04-11 23:30:00,49.1,47.0,29.82,NNW,332,0.0,0.0,91,0.00,,,0.00,,2013-04-12 06:30:00,
2013-04-11 23:40:00,49.2,47.0,29.83,NW,307,0.0,0.0,91,0.00,,,0.00,,2013-04-12 06:40:00,
2013-04-11 23:50:00,49.1,47.0,29.83,NW,321,0.0,0.0,91,0.00,,,0.00,,2013-04-12 06:50:00,